DW9244 N Kingstown RI US current weather conditions

sailwx.info

Wind from 076

Air temperature 18.3° C
Dewpoint 17.0° C

Last reported at 2020-Aug-08 05:00 UTC.
Time now 2020-Aug-08 06:11 UTC

Location: N 41°34' W 071°28'.
View on Google Maps.

See reports from other nearby stations

  
Tides and Currents Weather Stations Pressure Air Temp Water Temp Dewpoint Dewpoint Depression Visibility Wind Speed Wind Dir Waves Ship Positions
date/time (UTC)wind fromknots sea level pressurealtimeterstation pressurevisibilityair tempwater tempwave heightnotes
2020-Aug-08 05:00 076 18.3
2020-Aug-08 04:45 076 18.9
2020-Aug-08 04:30 076 18.3
2020-Aug-08 04:15 076 18.9
2020-Aug-08 04:01 076 18.9
2020-Aug-08 03:46 076 18.9
2020-Aug-08 03:32 076 18.9
2020-Aug-08 03:16 076 18.9
2020-Aug-08 03:01 076 18.9
2020-Aug-08 02:46 076 18.9
2020-Aug-08 02:31 076 18.9
2020-Aug-08 02:16 077 18.9
2020-Aug-08 02:01 077 18.9
2020-Aug-08 01:46 077 19.4
2020-Aug-08 01:31 077 19.4
2020-Aug-08 01:17 077 19.4
2020-Aug-08 01:01 077 19.4
2020-Aug-08 00:47 077 20.0
2020-Aug-08 00:31 077 20.0
2020-Aug-08 00:16 077 20.6
2020-Aug-08 00:01 077 20.6
2020-Aug-07 23:47 077 21.1
2020-Aug-07 23:32 077 21.7
2020-Aug-07 23:17 077 22.2
2020-Aug-07 23:01 077 22.8
2020-Aug-07 22:47 076 22.8
2020-Aug-07 22:31 076 23.3
2020-Aug-07 22:16 076 23.9
2020-Aug-07 22:01 063 0 gusting 5 23.9
2020-Aug-07 21:45 088 0 gusting 3 23.9
2020-Aug-07 21:31 184 0 gusting 3 23.9
2020-Aug-07 21:16 133 23.9
2020-Aug-07 21:01 098 0 gusting 5 23.9
2020-Aug-07 20:46 105 0 gusting 3 23.9
2020-Aug-07 20:31 101 23.3
2020-Aug-07 20:16 090 22.8
2020-Aug-07 20:00 090 22.8
2020-Aug-07 19:47 090 23.3
2020-Aug-07 19:31 090 23.3
2020-Aug-07 19:16 162 23.3
2020-Aug-07 19:01 162 23.9
2020-Aug-07 18:46 167 1 gusting 4 23.9
2020-Aug-07 18:31 155 23.9
2020-Aug-07 18:16 243 0 gusting 4 24.4
2020-Aug-07 18:01 215 0 gusting 4 24.4
2020-Aug-07 17:46 207 24.4
2020-Aug-07 17:32 207 0 gusting 3 24.4
2020-Aug-07 17:16 196 25.0
2020-Aug-07 17:01 077 25.0
2020-Aug-07 16:45 066 25.0
2020-Aug-07 16:31 069 25.0
2020-Aug-07 16:15 111 0 gusting 3 25.0
2020-Aug-07 16:01 150 1 gusting 6 24.4
2020-Aug-07 15:46 114 0 gusting 6 24.4
2020-Aug-07 15:31 080 1 gusting 6 24.4
2020-Aug-07 15:16 090 2 gusting 5 23.9
2020-Aug-07 15:01 066 23.9
2020-Aug-07 14:45 168 23.3
2020-Aug-07 14:30 215 22.8
2020-Aug-07 14:15 228 21.7
2020-Aug-07 14:00 221 21.1
2020-Aug-07 13:45 221 20.6
2020-Aug-07 13:30 223 20.0
2020-Aug-07 13:15 223 19.4
2020-Aug-07 13:04 223 19.4
2020-Aug-07 12:46 223 18.9
2020-Aug-07 12:31 223 18.9
2020-Aug-07 12:16 223 18.3
2020-Aug-07 12:01 223 18.3
2020-Aug-07 11:47 223 17.8
2020-Aug-07 11:31 223 17.8
2020-Aug-07 11:16 223 17.8
2020-Aug-07 11:01 223 17.8
2020-Aug-07 10:46 223 17.2
2020-Aug-07 10:31 223 17.2
2020-Aug-07 10:16 223 17.2
2020-Aug-07 10:01 223 17.2
2020-Aug-07 09:45 223 17.2
2020-Aug-07 09:31 223 17.2
2020-Aug-07 09:16 223 17.2
2020-Aug-07 09:00 223 17.2
2020-Aug-07 08:46 223 17.2
2020-Aug-07 08:30 223 17.2
2020-Aug-07 08:15 223 17.2
2020-Aug-07 08:01 223 16.7
2020-Aug-07 07:45 223 16.7
2020-Aug-07 07:31 223 16.7
2020-Aug-07 07:15 223 16.7
2020-Aug-07 07:01 223 16.7
2020-Aug-07 06:45 223 16.7
2020-Aug-07 06:30 223 16.7
2020-Aug-07 06:15 223 16.7
2020-Aug-07 06:00 223 16.7
2020-Aug-07 05:46 223 17.2
2020-Aug-07 05:30 223 17.2
2020-Aug-07 05:15 223 17.2
2020-Aug-07 05:00 223 17.2
2020-Aug-07 04:45 223 17.2
2020-Aug-07 04:31 223 17.2
2020-Aug-07 04:15 223 17.8
2020-Aug-07 04:00 223 17.8
2020-Aug-07 03:45 223 17.8
2020-Aug-07 03:30 223 17.8
2020-Aug-07 03:15 223 17.8
2020-Aug-07 03:00 223 17.8
2020-Aug-07 02:45 223 18.3
2020-Aug-07 02:30 223 18.3
2020-Aug-07 02:15 223 18.3
2020-Aug-07 02:01 223 18.3
2020-Aug-07 01:45 223 18.9
2020-Aug-07 01:30 223 18.9
2020-Aug-07 01:15 223 18.9
2020-Aug-07 01:00 223 19.4
2020-Aug-07 00:45 223 19.4
2020-Aug-07 00:30 223 20.0
2020-Aug-07 00:15 223 20.6
2020-Aug-07 00:00 223 21.1
2020-Aug-06 23:45 223 21.7
2020-Aug-06 23:30 223 22.2
2020-Aug-06 23:15 223 22.2
2020-Aug-06 23:00 223 22.8
2020-Aug-06 22:45 223 22.8
2020-Aug-06 22:30 223 23.3
2020-Aug-06 22:15 245 23.3
2020-Aug-06 22:00 245 23.9
2020-Aug-06 21:45 245 0 gusting 6 23.9
2020-Aug-06 21:30 223 0 gusting 4 24.4
2020-Aug-06 21:01 185 0 gusting 6 24.4
2020-Aug-06 20:46 116 0 gusting 6 24.4
2020-Aug-06 20:31 232 0 gusting 3 24.4
2020-Aug-06 20:16 189 24.4
2020-Aug-06 20:02 196 0 gusting 4 24.4
2020-Aug-06 19:46 207 24.4
2020-Aug-06 19:33 190 0 gusting 3 23.9
2020-Aug-06 19:16 208 23.9
2020-Aug-06 19:01 195 24.4
2020-Aug-06 18:48 195 24.4
2020-Aug-06 18:31 229 0 gusting 2 24.4
2020-Aug-06 18:16 237 24.4
2020-Aug-06 18:01 198 1 gusting 4 24.4
2020-Aug-06 17:46 240 0 gusting 4 24.4
2020-Aug-06 17:31 229 0 gusting 2 25.0
2020-Aug-06 17:17 229 25.0
2020-Aug-06 17:01 202 25.0
2020-Aug-06 16:46 220 1 gusting 5 25.6
2020-Aug-06 16:31 184 1 gusting 6 26.1
2020-Aug-06 16:18 251 1 gusting 6 25.6
2020-Aug-06 16:00 065 24.4
2020-Aug-06 15:46 063 24.4
2020-Aug-06 15:31 063 24.4
2020-Aug-06 15:16 062 25.0
2020-Aug-06 15:01 032 1 gusting 5 25.0
2020-Aug-06 14:45 135 0 gusting 3 25.0
2020-Aug-06 14:31 133 1 gusting 5 25.6
2020-Aug-06 14:16 084 0 gusting 3 25.6
2020-Aug-06 14:01 097 0 gusting 5 25.6
2020-Aug-06 13:45 114 25.0
2020-Aug-06 13:30 130 23.9
2020-Aug-06 13:15 132 22.8
2020-Aug-06 13:01 132 22.2
2020-Aug-06 12:45 177 21.1
2020-Aug-06 12:30 238 20.0
2020-Aug-06 12:15 238 19.4
2020-Aug-06 12:00 238 18.9
2020-Aug-06 11:45 238 18.3
2020-Aug-06 11:30 238 17.8
2020-Aug-06 11:15 238 17.2
2020-Aug-06 11:00 238 17.2
2020-Aug-06 10:45 238 16.7
2020-Aug-06 10:30 238 16.7
2020-Aug-06 10:15 238 16.7
2020-Aug-06 10:00 238 17.2
2020-Aug-06 09:45 238 17.2
2020-Aug-06 09:30 238 17.8
2020-Aug-06 09:17 238 17.8
2020-Aug-06 09:01 238 17.8
2020-Aug-06 08:46 238 17.8
2020-Aug-06 08:32 238 18.3
2020-Aug-06 08:16 238 18.3
2020-Aug-06 08:03 238 18.3
2020-Aug-06 07:46 238 18.3
2020-Aug-06 07:32 238 18.9
2020-Aug-06 07:16 238 18.9
2020-Aug-06 07:02 238 18.9
2020-Aug-06 06:47 238 18.9
2020-Aug-06 06:31 238 18.9
2020-Aug-06 06:00 238 19.4